Tracking 19246 objects as of 21-Sep-2018
HD Live streaming from Space Station
objects crossing your sky now

FENGYUN 1C DEB

Track FENGYUN 1C DEB now!
10-day predictions


NORAD ID: 31989
Int'l Code: 1999-025CPS
Perigee: 847.6 km
Apogee: 1,022.9 km
Inclination: 99.5 °
Period: 103.6 minutes
Semi major axis: 7306 km
RCS: 0.0027 m2 (small)
Launch date: May 10, 1999
Source: People's Republic of China (PRC)
Launch site: Taiyaun Space Center, China (TSC)

Note: This is SATELLITE DEBRIS
aabbcc
Your satellite tracking list
Your tracking list is empty




NASA's NSSDC Master Catalog

Two Line Element Set (TLE):
1 31989U 99025CPS 18262.97335014 +.00000134 +00000-0 +13789-3 0  9995
2 31989 099.4672 262.3620 0119953 207.3582 183.7896 13.90150971569980
Source of the keplerian elements: AFSPC